| time (UTC) | temp F | wind direction | speed MPH | gust MPH | rain 1hr in | rain 24hr in | rain mn in | humidity % | barometer mb |
| 20260510135559 | 55 | 46 | 3.0 | 9.0 | 0.00 | 0.00 | 0.00 | 66 | 1017.1 |
| 20260510135059 | 55 | 0 | 2.0 | 9.0 | 0.00 | 0.00 | 0.00 | 68 | 1017.2 |
| 20260510134606 | 55 | 86 | 2.0 | 9.0 | 0.00 | 0.00 | 0.00 | 68 | 1017.3 |
| 20260510134059 | 55 | 279 | 2.0 | 8.0 | 0.00 | 0.00 | 0.00 | 68 | 1017.2 |
| 20260510133558 | 55 | 316 | 3.0 | 8.0 | 0.00 | 0.00 | 0.00 | 68 | 1017.1 |
| 20260510133102 | 55 | 325 | 1.0 | 8.0 | 0.00 | 0.00 | 0.00 | 69 | 1017.2 |
| 20260510132558 | 56 | 309 | 3.0 | 8.0 | 0.00 | 0.00 | 0.00 | 69 | 1017.2 |
| 20260510132059 | 56 | 77 | 2.0 | 8.0 | 0.00 | 0.00 | 0.00 | 68 | 1017.2 |
| 20260510131557 | 56 | 300 | 4.0 | 11.0 | 0.00 | 0.00 | 0.00 | 67 | 1017.2 |
| 20260510131058 | 56 | 103 | 3.0 | 11.0 | 0.00 | 0.00 | 0.00 | 68 | 1017.2 |
| 20260510130558 | 56 | 49 | 3.0 | 10.0 | 0.00 | 0.00 | 0.00 | 68 | 1017.1 |
| 20260510130112 | 56 | 115 | 2.0 | 8.0 | 0.00 | 0.00 | 0.00 | 67 | 1017.1 |
| 20260510125557 | 56 | 323 | 1.0 | 14.0 | 0.00 | 0.00 | 0.00 | 68 | 1017.2 |
| 20260510125059 | 56 | 26 | 2.0 | 14.0 | 0.00 | 0.00 | 0.00 | 69 | 1017.3 |
| 20260510124606 | 56 | 77 | 6.0 | 13.0 | 0.00 | 0.00 | 0.00 | 65 | 1017.3 |
| 20260510124059 | 57 | 77 | 3.0 | 10.0 | 0.00 | 0.00 | 0.00 | 67 | 1017.4 |
| 20260510123559 | 57 | 306 | 2.0 | 12.0 | 0.00 | 0.00 | 0.00 | 67 | 1017.4 |
| 20260510123104 | 57 | 336 | 5.0 | 12.0 | 0.00 | 0.00 | 0.00 | 69 | 1017.5 |
| 20260510122558 | 56 | 38 | 4.0 | 11.0 | 0.00 | 0.00 | 0.00 | 69 | 1017.5 |
| 20260510122058 | 56 | 347 | 3.0 | 12.0 | 0.00 | 0.00 | 0.00 | 68 | 1017.5 |
| 20260510121605 | 56 | 323 | 3.0 | 16.0 | 0.00 | 0.00 | 0.00 | 68 | 1017.6 |
| 20260510121100 | 56 | 30 | 8.0 | 16.0 | 0.00 | 0.00 | 0.00 | 66 | 1017.7 |
| 20260510120558 | 56 | 63 | 10.0 | 19.0 | 0.00 | 0.00 | 0.00 | 65 | 1017.6 |
| 20260510120058 | 56 | 64 | 7.0 | 19.0 | 0.00 | 0.00 | 0.00 | 65 | 1017.6 |
| 20260510115558 | 56 | 72 | 10.0 | 19.0 | 0.00 | 0.00 | 0.00 | 65 | 1017.6 |
| 20260510115058 | 56 | 310 | 9.0 | 19.0 | 0.00 | 0.00 | 0.00 | 65 | 1017.7 |
| 20260510114600 | 56 | 92 | 10.0 | 19.0 | 0.00 | 0.00 | 0.00 | 65 | 1017.7 |
| 20260510114057 | 56 | 103 | 6.0 | 20.0 | 0.00 | 0.00 | 0.00 | 66 | 1017.8 |
| 20260510113558 | 56 | 56 | 6.0 | 21.0 | 0.00 | 0.00 | 0.00 | 66 | 1017.8 |
| 20260510113107 | 56 | 98 | 9.0 | 21.0 | 0.00 | 0.00 | 0.00 | 65 | 1017.8 |
| 20260510112559 | 57 | 44 | 13.0 | 21.0 | 0.00 | 0.00 | 0.00 | 65 | 1018.0 |
| 20260510112059 | 57 | 319 | 7.0 | 18.0 | 0.00 | 0.00 | 0.00 | 65 | 1017.7 |
| 20260510111559 | 58 | 80 | 5.0 | 18.0 | 0.00 | 0.00 | 0.00 | 66 | 1017.9 |
| 20260510111059 | 57 | 104 | 9.0 | 21.0 | 0.00 | 0.00 | 0.00 | 66 | 1018.0 |
| 20260510110600 | 57 | 75 | 5.0 | 21.0 | 0.00 | 0.00 | 0.00 | 69 | 1018.1 |
| 20260510110058 | 57 | 349 | 7.0 | 21.0 | 0.00 | 0.00 | 0.00 | 65 | 1018.0 |
| 20260510105559 | 57 | 31 | 2.0 | 11.0 | 0.00 | 0.00 | 0.00 | 68 | 1018.2 |
| 20260510105059 | 57 | 328 | 5.0 | 13.0 | 0.00 | 0.00 | 0.00 | 70 | 1018.2 |
| 20260510104558 | 57 | 350 | 3.0 | 16.0 | 0.00 | 0.00 | 0.00 | 69 | 1018.1 |
| 20260510104057 | 57 | 103 | 5.0 | 18.0 | 0.00 | 0.00 | 0.00 | 70 | 1018.1 |
| 20260510103559 | 56 | 35 | 5.0 | 18.0 | 0.00 | 0.00 | 0.00 | 68 | 1018.1 |
| 20260510103059 | 56 | 43 | 9.0 | 18.0 | 0.00 | 0.00 | 0.00 | 68 | 1018.2 |
| 20260510102557 | 56 | 32 | 7.0 | 14.0 | 0.00 | 0.00 | 0.00 | 70 | 1018.0 |
| 20260510102058 | 56 | 296 | 6.0 | 14.0 | 0.00 | 0.00 | 0.00 | 69 | 1018.1 |
| 20260510101600 | 56 | 313 | 6.0 | 14.0 | 0.00 | 0.00 | 0.00 | 69 | 1018.1 |
| 20260510101058 | 56 | 334 | 8.0 | 14.0 | 0.00 | 0.00 | 0.00 | 69 | 1018.1 |
| 20260510100558 | 57 | 352 | 6.0 | 14.0 | 0.00 | 0.00 | 0.00 | 69 | 1018.0 |
| 20260510100110 | 56 | 16 | 2.0 | 15.0 | 0.00 | 0.00 | 0.00 | 69 | 1018.1 |
| 20260510095600 | 56 | 319 | 3.0 | 19.0 | 0.00 | 0.00 | 0.00 | 68 | 1018.0 |
| 20260510095058 | 57 | 87 | 9.0 | 19.0 | 0.00 | 0.00 | 0.00 | 63 | 1018.1 |
| 20260510094558 | 57 | 101 | 10.0 | 18.0 | 0.00 | 0.00 | 0.00 | 61 | 1018.1 |
| 20260510094057 | 58 | 115 | 10.0 | 19.0 | 0.00 | 0.00 | 0.00 | 62 | 1018.2 |
| 20260510093557 | 57 | 87 | 11.0 | 19.0 | 0.00 | 0.00 | 0.00 | 64 | 1018.2 |
| 20260510093100 | 56 | 151 | 10.0 | 19.0 | 0.00 | 0.00 | 0.00 | 65 | 1018.3 |
| 20260510092601 | 56 | 69 | 10.0 | 19.0 | 0.00 | 0.00 | 0.00 | 65 | 1018.3 |
| 20260510092102 | 55 | 48 | 9.0 | 21.0 | 0.00 | 0.00 | 0.00 | 67 | 1018.3 |
| 20260510091601 | 55 | 46 | 11.0 | 21.0 | 0.00 | 0.00 | 0.00 | 67 | 1018.3 |
| 20260510091057 | 54 | 63 | 10.0 | 18.0 | 0.00 | 0.00 | 0.00 | 68 | 1018.3 |
| 20260510090558 | 54 | 48 | 10.0 | 18.0 | 0.00 | 0.00 | 0.00 | 68 | 1018.5 |
| 20260510090058 | 55 | 103 | 9.0 | 16.0 | 0.00 | 0.00 | 0.00 | 70 | 1018.4 |
| 20260510085559 | 55 | 26 | 5.0 | 13.0 | 0.00 | 0.00 | 0.00 | 67 | 1018.5 |
| 20260510085059 | 55 | 32 | 6.0 | 14.0 | 0.00 | 0.00 | 0.00 | 66 | 1018.5 |
| 20260510084600 | 55 | 73 | 8.0 | 17.0 | 0.00 | 0.00 | 0.00 | 66 | 1018.5 |
| 20260510084058 | 55 | 62 | 10.0 | 20.0 | 0.00 | 0.00 | 0.00 | 64 | 1018.5 |
| 20260510083601 | 55 | 42 | 9.0 | 20.0 | 0.00 | 0.00 | 0.00 | 65 | 1018.6 |
| 20260510083102 | 55 | 75 | 7.0 | 20.0 | 0.00 | 0.00 | 0.00 | 66 | 1018.8 |
| 20260510082557 | 55 | 58 | 5.0 | 12.0 | 0.00 | 0.00 | 0.00 | 68 | 1018.6 |
| 20260510082057 | 55 | 26 | 6.0 | 15.0 | 0.00 | 0.00 | 0.00 | 68 | 1018.6 |
| 20260510081559 | 56 | 75 | 6.0 | 15.0 | 0.00 | 0.00 | 0.00 | 69 | 1018.6 |
| 20260510081058 | 55 | 127 | 8.0 | 15.0 | 0.00 | 0.00 | 0.00 | 67 | 1018.6 |
| 20260510080600 | 54 | 69 | 7.0 | 22.0 | 0.00 | 0.00 | 0.00 | 67 | 1018.6 |
| 20260510080104 | 54 | 130 | 7.0 | 22.0 | 0.00 | 0.00 | 0.00 | 67 | 1018.5 |
| 20260510075601 | 54 | 50 | 9.0 | 18.0 | 0.00 | 0.00 | 0.00 | 68 | 1018.5 |
| 20260510075058 | 54 | 37 | 10.0 | 18.0 | 0.00 | 0.00 | 0.00 | 67 | 1018.5 |
| 20260510074559 | 54 | 67 | 5.0 | 17.0 | 0.00 | 0.00 | 0.00 | 69 | 1018.5 |
| 20260510074058 | 54 | 57 | 5.0 | 17.0 | 0.00 | 0.00 | 0.00 | 68 | 1018.4 |
| 20260510073559 | 54 | 28 | 6.0 | 19.0 | 0.00 | 0.00 | 0.00 | 70 | 1018.3 |
| 20260510073116 | 53 | 99 | 8.0 | 19.0 | 0.00 | 0.00 | 0.00 | 71 | 1018.3 |
| 20260510072558 | 53 | 54 | 9.0 | 20.0 | 0.00 | 0.00 | 0.00 | 70 | 1018.4 |
| 20260510072059 | 52 | 63 | 10.0 | 20.0 | 0.00 | 0.00 | 0.00 | 71 | 1018.4 |
| 20260510071558 | 52 | 72 | 8.0 | 19.0 | 0.00 | 0.00 | 0.00 | 71 | 1018.3 |
| 20260510071058 | 52 | 65 | 7.0 | 18.0 | 0.00 | 0.00 | 0.00 | 71 | 1018.3 |
| 20260510070557 | 53 | 78 | 9.0 | 17.0 | 0.00 | 0.00 | 0.00 | 71 | 1018.3 |
| 20260510070106 | 53 | 51 | 7.0 | 17.0 | 0.00 | 0.00 | 0.00 | 71 | 1018.3 |
| 20260510065559 | 53 | 82 | 6.0 | 15.0 | 0.00 | 0.00 | 0.00 | 71 | 1018.2 |
| 20260510065100 | 53 | 68 | 5.0 | 15.0 | 0.00 | 0.00 | 0.00 | 71 | 1018.2 |
| 20260510064636 | 52 | 76 | 8.0 | 14.0 | 0.00 | 0.00 | 0.00 | 71 | 1018.2 |
| 20260510064058 | 53 | 37 | 6.0 | 12.0 | 0.00 | 0.00 | 0.00 | 72 | 1018.3 |
| 20260510063558 | 53 | 78 | 6.0 | 16.0 | 0.00 | 0.00 | 0.00 | 71 | 1018.2 |
| 20260510063058 | 53 | 223 | 5.0 | 16.0 | 0.00 | 0.00 | 0.00 | 72 | 1018.2 |
| 20260510062558 | 53 | 82 | 6.0 | 16.0 | 0.00 | 0.00 | 0.00 | 72 | 1018.1 |
| 20260510062059 | 53 | 57 | 3.0 | 14.0 | 0.00 | 0.00 | 0.00 | 71 | 1018.2 |
| 20260510061557 | 53 | 128 | 1.0 | 15.0 | 0.00 | 0.00 | 0.00 | 73 | 1018.1 |
| 20260510061058 | 52 | 142 | 4.0 | 15.0 | 0.00 | 0.00 | 0.00 | 71 | 1018.1 |
| 20260510060602 | 52 | 126 | 4.0 | 14.0 | 0.00 | 0.00 | 0.00 | 72 | 1018.0 |
| 20260510060059 | 52 | 60 | 6.0 | 14.0 | 0.00 | 0.00 | 0.00 | 72 | 1018.2 |
| 20260510055558 | 52 | 91 | 2.0 | 11.0 | 0.00 | 0.00 | 0.00 | 73 | 1018.1 |
| 20260510055059 | 51 | 38 | 5.0 | 14.0 | 0.00 | 0.00 | 0.00 | 74 | 1018.1 |
| 20260510054604 | 51 | 141 | 4.0 | 14.0 | 0.00 | 0.00 | 0.00 | 75 | 1018.2 |
| 20260510054058 | 50 | 107 | 7.0 | 14.0 | 0.00 | 0.00 | 0.00 | 76 | 1018.1 |
| 20260510053559 | 50 | 209 | 3.0 | 9.0 | 0.00 | 0.00 | 0.00 | 77 | 1018.1 |
| 20260510053057 | 50 | 175 | 2.0 | 9.0 | 0.00 | 0.00 | 0.00 | 77 | 1018.1 |
| 20260510052558 | 50 | 131 | 3.0 | 9.0 | 0.00 | 0.00 | 0.00 | 78 | 1018.1 |
| 20260510052058 | 49 | 98 | 3.0 | 9.0 | 0.00 | 0.00 | 0.00 | 77 | 1018.2 |
| 20260510051605 | 49 | 105 | 2.0 | 5.0 | 0.00 | 0.00 | 0.00 | 78 | 1018.3 |
| 20260510051100 | 49 | 238 | 2.0 | 5.0 | 0.00 | 0.00 | 0.00 | 78 | 1018.2 |
| 20260510050558 | 49 | 110 | 1.0 | 5.0 | 0.00 | 0.00 | 0.00 | 78 | 1018.3 |
| 20260510045601 | 49 | 299 | 3.0 | 11.0 | 0.00 | 0.00 | 0.00 | 78 | 1018.1 |
| 20260510045058 | 49 | 59 | 4.0 | 11.0 | 0.00 | 0.00 | 0.00 | 78 | 1018.2 |
| 20260510044602 | 49 | 352 | 2.0 | 11.0 | 0.00 | 0.00 | 0.00 | 78 | 1018.3 |
| 20260510044058 | 49 | 49 | 2.0 | 8.0 | 0.00 | 0.00 | 0.00 | 78 | 1018.2 |
| 20260510043559 | 49 | 90 | 3.0 | 9.0 | 0.00 | 0.00 | 0.00 | 78 | 1018.2 |
| 20260510043057 | 49 | 33 | 3.0 | 12.0 | 0.00 | 0.00 | 0.00 | 78 | 1018.3 |
| 20260510042559 | 49 | 61 | 4.0 | 12.0 | 0.00 | 0.00 | 0.00 | 78 | 1018.4 |
| 20260510042057 | 49 | 90 | 4.0 | 10.0 | 0.00 | 0.00 | 0.00 | 78 | 1018.3 |
| 20260510041557 | 49 | 69 | 3.0 | 10.0 | 0.00 | 0.00 | 0.00 | 78 | 1018.3 |
| 20260510041058 | 49 | 179 | 4.0 | 12.0 | 0.00 | 0.00 | 0.00 | 78 | 1018.2 |
| 20260510040559 | 49 | 69 | 4.0 | 12.0 | 0.00 | 0.00 | 0.00 | 78 | 1018.3 |
| 20260510040100 | 49 | 63 | 2.0 | 8.0 | 0.00 | 0.00 | 0.00 | 79 | 1018.3 |
| 20260510035558 | 49 | 80 | 3.0 | 13.0 | 0.00 | 0.00 | 0.00 | 79 | 1018.3 |
| 20260510035057 | 49 | 126 | 5.0 | 13.0 | 0.00 | 0.00 | 0.00 | 79 | 1018.3 |
| 20260510034618 | 49 | 85 | 3.0 | 9.0 | 0.00 | 0.00 | 0.00 | 79 | 1018.2 |
| 20260510034058 | 49 | 74 | 3.0 | 13.0 | 0.00 | 0.00 | 0.00 | 78 | 1018.3 |
| 20260510033558 | 49 | 71 | 4.0 | 13.0 | 0.00 | 0.00 | 0.00 | 78 | 1018.4 |
| 20260510033100 | 49 | 71 | 3.0 | 9.0 | 0.00 | 0.00 | 0.00 | 79 | 1018.5 |
| 20260510032557 | 49 | 60 | 1.0 | 8.0 | 0.00 | 0.00 | 0.00 | 78 | 1018.4 |
| 20260510032057 | 49 | 77 | 3.0 | 9.0 | 0.00 | 0.00 | 0.00 | 78 | 1018.4 |
| 20260510031557 | 49 | 49 | 4.0 | 13.0 | 0.00 | 0.00 | 0.00 | 78 | 1018.4 |
| 20260510031056 | 49 | 84 | 4.0 | 13.0 | 0.00 | 0.00 | 0.00 | 79 | 1018.4 |
| 20260510030559 | 49 | 0 | 2.0 | 7.0 | 0.00 | 0.00 | 0.00 | 79 | 1018.4 |
| 20260510030109 | 49 | 57 | 2.0 | 7.0 | 0.00 | 0.00 | 0.00 | 79 | 1018.4 |
| 20260510025558 | 49 | 104 | 1.0 | 8.0 | 0.00 | 0.00 | 0.00 | 79 | 1018.4 |
| 20260510025058 | 50 | 80 | 3.0 | 8.0 | 0.00 | 0.00 | 0.00 | 79 | 1018.4 |
| 20260510024600 | 50 | 40 | 3.0 | 8.0 | 0.00 | 0.00 | 0.00 | 78 | 1018.3 |
| 20260510024058 | 50 | 93 | 2.0 | 10.0 | 0.00 | 0.00 | 0.00 | 78 | 1018.2 |
| 20260510023557 | 50 | 42 | 0.0 | 10.0 | 0.00 | 0.00 | 0.00 | 78 | 1018.3 |
| 20260510023058 | 50 | 44 | 2.0 | 10.0 | 0.00 | 0.00 | 0.00 | 78 | 1018.3 |
| 20260510022603 | 50 | 99 | 3.0 | 10.0 | 0.00 | 0.00 | 0.00 | 78 | 1018.2 |
| 20260510022057 | 50 | 59 | 4.0 | 12.0 | 0.00 | 0.00 | 0.00 | 78 | 1018.3 |
| 20260510021604 | 51 | 44 | 5.0 | 12.0 | 0.00 | 0.00 | 0.00 | 78 | 1018.3 |
| 20260510021058 | 51 | 66 | 3.0 | 11.0 | 0.00 | 0.00 | 0.00 | 78 | 1018.3 |
| 20260510020557 | 51 | 80 | 4.0 | 9.0 | 0.00 | 0.00 | 0.00 | 78 | 1018.4 |
| 20260510020056 | 51 | 42 | 5.0 | 9.0 | 0.00 | 0.00 | 0.00 | 78 | 1018.3 |
| 20260510015558 | 51 | 41 | 3.0 | 13.0 | 0.00 | 0.00 | 0.00 | 77 | 1018.4 |
| 20260510015056 | 51 | 59 | 6.0 | 13.0 | 0.00 | 0.00 | 0.00 | 77 | 1018.3 |
| 20260510014602 | 51 | 79 | 4.0 | 9.0 | 0.00 | 0.00 | 0.00 | 78 | 1018.3 |
| 20260510014058 | 51 | 66 | 3.0 | 8.0 | 0.00 | 0.00 | 0.00 | 78 | 1018.4 |
| 20260510013600 | 51 | 63 | 4.0 | 9.0 | 0.00 | 0.00 | 0.00 | 78 | 1018.4 |
| 20260510013126 | 51 | 98 | 3.0 | 9.0 | 0.00 | 0.00 | 0.00 | 79 | 1018.3 |
| 20260510012558 | 51 | 66 | 1.0 | 8.0 | 0.00 | 0.00 | 0.00 | 79 | 1018.4 |
| 20260510012057 | 51 | 115 | 0.0 | 7.0 | 0.00 | 0.00 | 0.00 | 79 | 1018.5 |
| 20260510011558 | 51 | 145 | 1.0 | 9.0 | 0.00 | 0.00 | 0.00 | 79 | 1018.3 |
| 20260510011058 | 52 | 0 | 2.0 | 9.0 | 0.00 | 0.00 | 0.00 | 79 | 1018.2 |
| 20260510010558 | 52 | 59 | 2.0 | 10.0 | 0.00 | 0.00 | 0.00 | 78 | 1018.2 |
| 20260510010058 | 52 | 74 | 3.0 | 14.0 | 0.00 | 0.00 | 0.00 | 78 | 1018.1 |
| 20260510005558 | 52 | 61 | 2.0 | 14.0 | 0.00 | 0.00 | 0.00 | 78 | 1018.0 |
| 20260510005100 | 52 | 88 | 4.0 | 14.0 | 0.00 | 0.00 | 0.00 | 78 | 1018.0 |
| 20260510004559 | 52 | 54 | 4.0 | 11.0 | 0.00 | 0.00 | 0.00 | 77 | 1017.9 |
| 20260510004059 | 53 | 119 | 2.0 | 13.0 | 0.00 | 0.00 | 0.00 | 77 | 1018.1 |
| 20260510003559 | 53 | 81 | 4.0 | 13.0 | 0.00 | 0.00 | 0.00 | 77 | 1018.1 |
| 20260510003107 | 53 | 53 | 3.0 | 13.0 | 0.00 | 0.00 | 0.00 | 77 | 1018.2 |
| 20260510002601 | 53 | 112 | 3.0 | 8.0 | 0.00 | 0.00 | 0.00 | 77 | 1018.1 |
| 20260510002105 | 53 | 320 | 2.0 | 6.0 | 0.00 | 0.00 | 0.00 | 77 | 1018.1 |
| 20260510001559 | 53 | 287 | 2.0 | 7.0 | 0.00 | 0.00 | 0.00 | 78 | 1018.1 |
| 20260510001059 | 53 | 0 | 2.0 | 7.0 | 0.00 | 0.00 | 0.00 | 78 | 1018.0 |
| 20260510000559 | 53 | 230 | 1.0 | 9.0 | 0.00 | 0.00 | 0.00 | 78 | 1018.1 |
| 20260510000126 | 54 | 92 | 2.0 | 9.0 | 0.00 | 0.00 | 0.00 | 77 | 1017.9 |
| 20260509235558 | 54 | 96 | 3.0 | 9.0 | 0.00 | 0.00 | 0.00 | 77 | 1017.9 |
| 20260509235058 | 54 | 319 | 4.0 | 10.0 | 0.00 | 0.00 | 0.00 | 77 | 1017.9 |
| 20260509234556 | 54 | 294 | 2.0 | 11.0 | 0.00 | 0.00 | 0.00 | 76 | 1018.0 |
| 20260509234058 | 54 | 94 | 3.0 | 11.0 | 0.00 | 0.00 | 0.00 | 76 | 1017.9 |
| 20260509233558 | 55 | 83 | 3.0 | 18.0 | 0.00 | 0.00 | 0.00 | 76 | 1017.9 |
| 20260509233058 | 55 | 93 | 6.0 | 18.0 | 0.00 | 0.00 | 0.00 | 76 | 1017.8 |
| 20260509232559 | 55 | 109 | 5.0 | 18.0 | 0.00 | 0.00 | 0.00 | 76 | 1017.8 |
| 20260509232059 | 55 | 19 | 7.0 | 17.0 | 0.00 | 0.00 | 0.00 | 76 | 1017.7 |
| 20260509231610 | 55 | 59 | 2.0 | 13.0 | 0.00 | 0.00 | 0.00 | 76 | 1017.7 |
| 20260509231058 | 55 | 24 | 6.0 | 13.0 | 0.00 | 0.00 | 0.00 | 76 | 1018.0 |
| 20260509230558 | 55 | 59 | 6.0 | 11.0 | 0.00 | 0.00 | 0.00 | 76 | 1018.0 |
| 20260509230108 | 55 | 84 | 5.0 | 11.0 | 0.00 | 0.00 | 0.00 | 76 | 1017.8 |
| 20260509225600 | 55 | 337 | 3.0 | 12.0 | 0.00 | 0.00 | 0.00 | 76 | 1017.5 |
| 20260509225110 | 56 | 136 | 5.0 | 12.0 | 0.00 | 0.00 | 0.00 | 76 | 1017.4 |
| 20260509224556 | 56 | 122 | 4.0 | 12.0 | 0.00 | 0.00 | 0.00 | 76 | 1017.4 |
| 20260509224058 | 56 | 288 | 3.0 | 10.0 | 0.00 | 0.00 | 0.00 | 76 | 1017.4 |
| 20260509223558 | 56 | 352 | 1.0 | 9.0 | 0.00 | 0.00 | 0.00 | 76 | 1017.5 |
| 20260509223110 | 56 | 46 | 2.0 | 12.0 | 0.00 | 0.00 | 0.00 | 75 | 1017.5 |
| 20260509222558 | 56 | 89 | 2.0 | 12.0 | 0.00 | 0.00 | 0.00 | 75 | 1017.5 |
| 20260509222058 | 56 | 40 | 3.0 | 12.0 | 0.00 | 0.00 | 0.00 | 76 | 1017.5 |
| 20260509221626 | 56 | 161 | 2.0 | 7.0 | 0.00 | 0.00 | 0.00 | 76 | 1017.5 |
| 20260509221059 | 57 | 83 | 2.0 | 6.0 | 0.00 | 0.00 | 0.00 | 76 | 1017.5 |
| 20260509220558 | 57 | 154 | 1.0 | 11.0 | 0.00 | 0.00 | 0.00 | 76 | 1017.4 |
| 20260509220057 | 57 | 37 | 2.0 | 11.0 | 0.00 | 0.00 | 0.00 | 76 | 1017.4 |
| 20260509215559 | 57 | 360 | 3.0 | 11.0 | 0.00 | 0.00 | 0.00 | 76 | 1017.5 |
| 20260509215103 | 57 | 350 | 3.0 | 11.0 | 0.00 | 0.00 | 0.00 | 76 | 1017.6 |
| 20260509214604 | 57 | 275 | 4.0 | 12.0 | 0.00 | 0.00 | 0.00 | 75 | 1017.5 |
| 20260509214059 | 57 | 325 | 6.0 | 12.0 | 0.00 | 0.00 | 0.00 | 75 | 1017.4 |
| 20260509213558 | 57 | 317 | 6.0 | 12.0 | 0.00 | 0.00 | 0.00 | 75 | 1017.4 |
| 20260509213057 | 57 | 333 | 5.0 | 11.0 | 0.00 | 0.00 | 0.00 | 75 | 1017.5 |
| 20260509212559 | 57 | 256 | 4.0 | 12.0 | 0.00 | 0.00 | 0.00 | 75 | 1017.4 |
| 20260509212058 | 57 | 296 | 5.0 | 12.0 | 0.00 | 0.00 | 0.00 | 74 | 1017.5 |
| 20260509211605 | 57 | 319 | 6.0 | 13.0 | 0.00 | 0.00 | 0.00 | 74 | 1017.5 |
| 20260509211058 | 58 | 352 | 6.0 | 13.0 | 0.00 | 0.00 | 0.00 | 74 | 1017.3 |
| 20260509210558 | 58 | 352 | 7.0 | 12.0 | 0.00 | 0.00 | 0.00 | 74 | 1017.3 |
| 20260509210059 | 58 | 351 | 5.0 | 11.0 | 0.00 | 0.00 | 0.00 | 74 | 1017.2 |
| 20260509205558 | 58 | 284 | 5.0 | 12.0 | 0.00 | 0.00 | 0.00 | 73 | 1017.1 |
| 20260509205058 | 58 | 313 | 6.0 | 13.0 | 0.00 | 0.00 | 0.00 | 73 | 1017.1 |
| 20260509204602 | 59 | 316 | 7.0 | 13.0 | 0.00 | 0.00 | 0.00 | 72 | 1017.2 |
| 20260509204058 | 59 | 319 | 7.0 | 12.0 | 0.00 | 0.00 | 0.00 | 71 | 1017.1 |
| 20260509203601 | 59 | 338 | 5.0 | 17.0 | 0.00 | 0.00 | 0.00 | 71 | 1016.9 |
| 20260509203058 | 60 | 10 | 7.0 | 17.0 | 0.00 | 0.00 | 0.00 | 70 | 1016.9 |
| 20260509202559 | 60 | 323 | 6.0 | 17.0 | 0.00 | 0.00 | 0.00 | 70 | 1017.0 |
| 20260509202101 | 60 | 344 | 8.0 | 17.0 | 0.00 | 0.00 | 0.00 | 69 | 1016.9 |
| 20260509201558 | 60 | 347 | 7.0 | 17.0 | 0.00 | 0.00 | 0.00 | 69 | 1017.0 |
| 20260509201102 | 60 | 350 | 9.0 | 16.0 | 0.00 | 0.00 | 0.00 | 68 | 1016.8 |
| 20260509200559 | 61 | 352 | 8.0 | 14.0 | 0.00 | 0.00 | 0.00 | 68 | 1016.9 |
| 20260509200109 | 61 | 349 | 6.0 | 14.0 | 0.00 | 0.00 | 0.00 | 67 | 1016.8 |
| 20260509195600 | 61 | 347 | 8.0 | 13.0 | 0.00 | 0.00 | 0.00 | 66 | 1016.7 |
| 20260509195101 | 61 | 5 | 7.0 | 12.0 | 0.00 | 0.00 | 0.00 | 62 | 1016.7 |
| 20260509194559 | 60 | 321 | 2.0 | 4.0 | 0.00 | 0.00 | 0.00 | 59 | 1016.7 |
| 20260509194058 | 61 | 0 | 1.0 | 4.0 | 0.00 | 0.00 | 0.00 | 59 | 1016.6 |
| 20260509193558 | 61 | 256 | 1.0 | 4.0 | 0.00 | 0.00 | 0.00 | 58 | 1016.6 |
| 20260509193104 | 61 | 278 | 1.0 | 4.0 | 0.00 | 0.00 | 0.00 | 57 | 1016.5 |
| 20260509192558 | 62 | 232 | 0.0 | 6.0 | 0.00 | 0.00 | 0.00 | 58 | 1016.6 |
| 20260509192102 | 62 | 232 | 1.0 | 6.0 | 0.00 | 0.00 | 0.00 | 57 | 1016.5 |
| 20260509191605 | 63 | 350 | 3.0 | 6.0 | 0.00 | 0.00 | 0.00 | 55 | 1016.5 |
| 20260509191058 | 63 | 300 | 3.0 | 6.0 | 0.00 | 0.00 | 0.00 | 55 | 1016.5 |
| 20260509190557 | 63 | 320 | 3.0 | 6.0 | 0.00 | 0.00 | 0.00 | 54 | 1016.6 |
| 20260509190100 | 64 | 55 | 3.0 | 7.0 | 0.00 | 0.00 | 0.00 | 53 | 1016.4 |
| 20260509185559 | 64 | 339 | 3.0 | 8.0 | 0.00 | 0.00 | 0.00 | 53 | 1016.5 |
| 20260509185059 | 65 | 315 | 3.0 | 8.0 | 0.00 | 0.00 | 0.00 | 52 | 1016.5 |
| 20260509184610 | 66 | 328 | 2.0 | 7.0 | 0.00 | 0.00 | 0.00 | 52 | 1016.3 |
| 20260509184058 | 66 | 333 | 2.0 | 10.0 | 0.00 | 0.00 | 0.00 | 51 | 1016.4 |
| 20260509183558 | 66 | 315 | 2.0 | 10.0 | 0.00 | 0.00 | 0.00 | 50 | 1016.4 |
| 20260509183108 | 66 | 332 | 5.0 | 10.0 | 0.00 | 0.00 | 0.00 | 49 | 1016.2 |
| 20260509182559 | 67 | 338 | 3.0 | 11.0 | 0.00 | 0.00 | 0.00 | 49 | 1016.2 |
| 20260509182058 | 68 | 317 | 3.0 | 12.0 | 0.00 | 0.00 | 0.00 | 50 | 1016.2 |
| 20260509181601 | 68 | 311 | 5.0 | 12.0 | 0.00 | 0.00 | 0.00 | 49 | 1016.2 |
| 20260509181059 | 68 | 338 | 5.0 | 12.0 | 0.00 | 0.00 | 0.00 | 49 | 1016.1 |
| 20260509180559 | 69 | 338 | 4.0 | 10.0 | 0.00 | 0.00 | 0.00 | 48 | 1016.0 |
| 20260509180109 | 69 | 348 | 4.0 | 10.0 | 0.00 | 0.00 | 0.00 | 50 | 1016.0 |
| 20260509175558 | 68 | 352 | 4.0 | 12.0 | 0.00 | 0.00 | 0.00 | 49 | 1015.9 |
| 20260509175058 | 69 | 32 | 4.0 | 13.0 | 0.00 | 0.00 | 0.00 | 49 | 1015.9 |
| 20260509174602 | 69 | 352 | 5.0 | 13.0 | 0.00 | 0.00 | 0.00 | 48 | 1016.0 |
| 20260509174058 | 69 | 22 | 5.0 | 12.0 | 0.00 | 0.00 | 0.00 | 50 | 1015.8 |
| 20260509173557 | 69 | 328 | 6.0 | 12.0 | 0.00 | 0.00 | 0.00 | 49 | 1015.7 |
| 20260509173104 | 69 | 315 | 5.0 | 11.0 | 0.00 | 0.00 | 0.00 | 49 | 1015.8 |
| 20260509172559 | 69 | 328 | 3.0 | 10.0 | 0.00 | 0.00 | 0.00 | 48 | 1015.9 |
| 20260509172101 | 69 | 350 | 2.0 | 8.0 | 0.00 | 0.00 | 0.00 | 48 | 1015.8 |
| 20260509171558 | 69 | 5 | 2.0 | 5.0 | 0.00 | 0.00 | 0.00 | 45 | 1015.9 |
| 20260509171058 | 69 | 74 | 2.0 | 9.0 | 0.00 | 0.00 | 0.00 | 45 | 1016.0 |
| 20260509170559 | 70 | 360 | 2.0 | 11.0 | 0.00 | 0.00 | 0.00 | 48 | 1015.9 |
| 20260509170059 | 70 | 335 | 4.0 | 12.0 | 0.00 | 0.00 | 0.00 | 47 | 1016.0 |
| 20260509165559 | 71 | 340 | 6.0 | 13.0 | 0.00 | 0.00 | 0.00 | 48 | 1015.9 |
| 20260509165058 | 71 | 323 | 6.0 | 13.0 | 0.00 | 0.00 | 0.00 | 48 | 1016.0 |
| 20260509164559 | 71 | 360 | 4.0 | 10.0 | 0.00 | 0.00 | 0.00 | 51 | 1015.9 |
| 20260509164058 | 71 | 71 | 3.0 | 12.0 | 0.00 | 0.00 | 0.00 | 48 | 1016.0 |
| 20260509163557 | 71 | 55 | 4.0 | 12.0 | 0.00 | 0.00 | 0.00 | 47 | 1016.0 |
| 20260509163102 | 71 | 10 | 2.0 | 11.0 | 0.00 | 0.00 | 0.00 | 49 | 1016.1 |
| 20260509162558 | 71 | 32 | 4.0 | 11.0 | 0.00 | 0.00 | 0.00 | 48 | 1016.1 |
| 20260509162058 | 71 | 360 | 5.0 | 11.0 | 0.00 | 0.00 | 0.00 | 46 | 1016.2 |
| 20260509161604 | 71 | 85 | 2.0 | 14.0 | 0.00 | 0.00 | 0.00 | 48 | 1016.2 |
| 20260509161059 | 71 | 312 | 8.0 | 14.0 | 0.00 | 0.00 | 0.00 | 48 | 1016.2 |
| 20260509160559 | 71 | 328 | 7.0 | 14.0 | 0.00 | 0.00 | 0.00 | 47 | 1016.3 |
| 20260509160101 | 71 | 333 | 7.0 | 14.0 | 0.00 | 0.00 | 0.00 | 47 | 1016.3 |
| 20260509155559 | 71 | 340 | 2.0 | 14.0 | 0.00 | 0.00 | 0.00 | 52 | 1016.2 |
| 20260509155058 | 71 | 5 | 6.0 | 14.0 | 0.00 | 0.00 | 0.00 | 47 | 1016.3 |
| 20260509154601 | 71 | 31 | 4.0 | 12.0 | 0.00 | 0.00 | 0.00 | 50 | 1016.3 |
| 20260509154059 | 71 | 315 | 6.0 | 13.0 | 0.00 | 0.00 | 0.00 | 49 | 1016.3 |
| 20260509153558 | 71 | 5 | 4.0 | 13.0 | 0.00 | 0.00 | 0.00 | 49 | 1016.4 |
| 20260509153100 | 71 | 360 | 4.0 | 11.0 | 0.00 | 0.00 | 0.00 | 49 | 1016.4 |
| 20260509152558 | 71 | 315 | 3.0 | 10.0 | 0.00 | 0.00 | 0.00 | 51 | 1016.4 |
| 20260509152058 | 70 | 336 | 6.0 | 10.0 | 0.00 | 0.00 | 0.00 | 50 | 1016.4 |
| 20260509151600 | 70 | 338 | 4.0 | 9.0 | 0.00 | 0.00 | 0.00 | 53 | 1016.5 |
| 20260509151100 | 69 | 307 | 5.0 | 12.0 | 0.00 | 0.00 | 0.00 | 54 | 1016.5 |
| 20260509150558 | 68 | 304 | 5.0 | 12.0 | 0.00 | 0.00 | 0.00 | 52 | 1016.6 |
| 20260509150103 | 67 | 59 | 6.0 | 10.0 | 0.00 | 0.00 | 0.00 | 48 | 1016.6 |
| 20260509145558 | 67 | 65 | 4.0 | 10.0 | 0.00 | 0.00 | 0.00 | 49 | 1016.6 |
| 20260509145058 | 68 | 108 | 4.0 | 9.0 | 0.00 | 0.00 | 0.00 | 51 | 1016.6 |
| 20260509144600 | 68 | 64 | 4.0 | 10.0 | 0.00 | 0.00 | 0.00 | 48 | 1016.7 |
| 20260509144058 | 68 | 51 | 2.0 | 10.0 | 0.00 | 0.00 | 0.00 | 47 | 1016.7 |
| 20260509143558 | 69 | 44 | 5.0 | 11.0 | 0.00 | 0.00 | 0.00 | 46 | 1016.7 |
| 20260509143102 | 70 | 59 | 6.0 | 11.0 | 0.00 | 0.00 | 0.00 | 50 | 1016.7 |
| 20260509142558 | 70 | 22 | 5.0 | 11.0 | 0.00 | 0.00 | 0.00 | 48 | 1016.6 |
| 20260509142058 | 70 | 48 | 3.0 | 11.0 | 0.00 | 0.00 | 0.00 | 46 | 1016.6 |
| 20260509141603 | 69 | 88 | 5.0 | 11.0 | 0.00 | 0.00 | 0.00 | 49 | 1016.6 |
| 20260509141105 | 69 | 52 | 4.0 | 11.0 | 0.00 | 0.00 | 0.00 | 51 | 1016.5 |
| 20260509140602 | 68 | 88 | 6.0 | 11.0 | 0.00 | 0.00 | 0.00 | 48 | 1016.5 |
| 20260509140106 | 68 | 80 | 5.0 | 9.0 | 0.00 | 0.00 | 0.00 | 50 | 1016.5 |